sat.trackr.live / text

‹ back to catalog

STARLINK-32706

NORAD 62308 · 2024-239H

PAYLOAD ACTIVE UNKNOWN

§ Identity

Operator
Country
US
Launch date
2024-12-13
Launch site
AFWTR
Launch vehicle
Mass (kg)
RCS (m²)

Purposes: comms

External: N2YO · Heavens-Above · Gunter

§ Orbital elements

Epoch: 2026-09-21T14:38:58.155648Z

Period
93.85 min
Inclination
53.1610°
Eccentricity
0.0001188
Mean motion
15.34411996 rev/d
Perigee alt
461.9 km
Apogee alt
463.5 km
Semi-major
6,840.8 km
B*
3.7597e-4
RAAN
0.8113°
Arg perigee
87.2028°
Mean anomaly
272.9110°
Rev number
9,942

§ Raw data

STARLINK-327061 62308U 24239H   26264.61039532  .00012352  00000+0  37597-3 0  99942 62308  53.1610   0.8113 0001188  87.2028 272.9110 15.34411996 99424

JSON: /api/v1/satellites/62308 · /tle

For live sub-satellite position, see the globe view (requires WebGL).

§ Visibility from observer

Set your observer location to see the next 7 days of passes ≥ 10°. The values pass through the URL so the page stays shareable.

No JS? Fill the form by hand. The geolocation button needs JavaScript.